Location: Arboyeti
(42.1122°N, 44.6017°E)
Time: 04:55:54
(UTC+00:00)

ISS - Pass Details

Date: 05 October 2021
Orbit: 417 x 423 km, 51.6° (Epoch: 18 October)

Event Time Altitude Azimuth Distance (km) Brightness Sun altitude
Rises 16:51:17 0° 288° (WNW) 2,363 1.4 -25.6°
Reaches altitude 10° 16:54:11 10° 261° (W) 1,495 -0.2 -26.1°
Enters shadow 16:55:46 13° 232° (SW) 1,302 -0.9 -26.4°
